RH
83 88 93 96 99 98 98 96 93 93 93 92 90 90 90 90 89 87 86 85 84 82 79 77 76 76 74 74 74 75 76 76 75 74 71 70 69 67 65 64 64 64 66 67 69 70 70 69 67 65 63 62 58 54 50 50 52 54 55 58 63 67 71 73 75 77 70 61 54 41 30 26 27 32 37 42 42 37 33 31 31 31 34 29 52 100 104 88 82 76 73 63 57 48 32 24 28
74 82 88 89 89 93 97 96 97 98 97 98 96 94 94 94 92 90 90 91 91 89 84 82 81 80 80 78 79 80 80 79 77 76 74 72 70 68 66 65 65 65 66 67 68 68 68 67 66 64 62 58 53 50 51 53 54 56 59 64 70 73 77 78 80 80 71 61 52 38 29 25 29 37 39 45 45 37 34 32 32 33 39 40 51 85 93 75 63 58 53 43 43 41 30 22 29
66 74 84 88 87 87 86 88 94 98 99 102 100 97 97 95 93 93 94 95 94 92 89 88 88 88 87 86 85 85 84 82 80 79 77 74 72 70 68 67 66 66 65 65 66 67 67 67 65 63 60 55 51 51 54 55 57 61 67 73 79 82 84 84 83 80 70 60 48 34 27 27 34 40 38 43 43 35 33 31 32 32 38 48 51 56 55 47 51 54 46 43 41 31 24 22 31
61 65 74 83 85 84 81 83 88 91 95 98 95 92 97 98 97 98 97 97 95 94 95 95 95 94 93 92 89 89 87 85 82 80 79 77 76 76 75 73 70 68 65 65 67 68 68 68 66 64 60 56 54 55 57 59 64 70 78 84 89 90 89 86 84 78 66 54 43 33 27 31 39 41 42 42 37 33 31 31 31 31 34 39 41 36 33 39 53 58 49 47 36 22 25 29 39
70 69 68 73 79 82 84 85 85 86 86 86 85 87 96 98 95 95 97 99 97 98 100 100 100 97 96 93 90 88 86 85 83 81 82 83 83 83 81 78 74 72 70 70 70 71 72 71 69 66 62 60 59 60 62 68 75 83 91 94 96 95 89 88 82 69 55 45 38 32 27 30 37 38 41 40 30 27 27 30 30 31 33 33 35 32 39 54 62 54 41 37 25 28 43 46 53
72 74 72 73 77 77 80 82 81 81 78 77 78 80 85 90 93 94 96 99 99 100 101 101 100 97 96 92 89 86 84 87 87 87 89 89 89 89 87 85 81 78 76 76 76 78 78 76 73 68 65 64 64 68 73 81 89 95 100 100 99 94 87 84 71 54 44 38 33 29 25 24 26 28 32 31 24 22 24 30 31 30 30 33 38 36 44 59 59 42 33 26 22 50 68 69 74
73 73 75 82 84 79 79 79 79 77 73 71 70 69 68 75 86 94 102 103 102 103 101 102 101 99 98 95 94 91 89 91 93 94 94 93 91 91 91 89 85 83 83 83 84 84 83 80 76 71 69 71 75 83 89 95 101 103 103 100 97 90 84 79 60 44 38 32 28 25 22 18 16 19 22 20 18 20 24 27 27 28 28 33 41 41 43 47 45 33 30 21 30 73 79 85 99
85 81 79 84 86 86 85 80 80 81 78 72 68 68 69 72 79 89 99 103 104 106 104 103 103 104 101 99 100 98 97 98 98 98 95 94 92 90 89 87 87 88 90 91 89 86 84 80 76 75 77 83 91 98 102 106 105 104 101 97 94 89 81 71 50 35 30 25 24 22 19 16 13 15 16 16 19 22 24 26 26 26 27 30 34 37 36 34 31 26 25 17 46 92 75 80 107
83 90 90 89 82 81 84 81 81 84 83 77 71 72 76 81 85 88 90 90 93 98 103 105 105 106 101 100 103 101 102 103 102 101 98 95 91 86 84 83 88 93 95 94 90 85 82 81 80 83 89 95 102 105 107 108 104 101 99 94 90 81 68 53 36 27 22 19 21 18 15 12 11 14 17 17 20 24 24 26 25 24 26 27 28 30 30 28 25 22 20 26 62 98 78 70 98
60 77 91 98 92 85 81 77 76 76 77 77 78 78 82 87 92 95 94 92 88 87 93 97 100 103 101 100 103 102 102 103 102 101 100 95 89 85 84 85 90 96 97 95 91 83 81 85 89 94 101 103 105 106 106 105 102 99 95 86 73 58 44 32 23 18 16 16 16 12 12 11 12 15 17 20 25 28 29 27 24 24 26 27 29 28 28 25 22 23 29 54 70 76 84 75 86
36 50 68 83 92 94 91 86 80 76 74 75 77 79 83 87 91 95 99 102 99 95 93 93 95 97 99 100 101 100 97 95 95 96 96 93 92 91 91 91 94 98 96 91 87 82 85 96 102 104 105 104 105 105 103 101 98 91 79 63 47 34 27 20 17 16 16 14 11 11 13 14 13 15 23 35 43 39 32 28 26 27 29 30 31 29 29 27 33 50 65 87 70 52 82 81 78
20 29 40 52 64 75 83 87 87 86 84 82 82 82 82 82 85 89 97 102 104 105 103 102 103 102 104 105 103 101 98 96 95 96 98 99 101 101 102 101 99 97 90 85 86 92 99 105 107 103 102 105 104 100 98 93 82 66 49 38 29 22 19 17 20 19 15 11 14 18 17 20 17 24 46 59 56 44 37 34 31 30 31 33 32 30 30 30 50 83 92 86 62 49 76 79 79
13 16 22 29 38 45 52 58 64 69 70 72 72 72 73 72 74 82 93 100 102 106 105 104 105 103 104 104 104 104 103 102 102 102 102 103 102 104 107 102 96 91 89 92 98 103 104 105 103 100 101 101 99 95 87 72 55 41 32 26 19 18 21 24 24 18 19 23 29 30 23 24 21 36 66 75 62 47 43 38 32 31 32 33 33 33 32 30 46 76 85 74 66 71 87 89 91
10 12 13 16 21 26 29 33 37 40 43 45 43 44 48 50 54 64 77 87 95 100 101 102 103 102 101 100 101 101 101 100 102 101 99 101 101 101 100 93 91 94 98 103 104 103 101 102 100 99 99 97 95 83 65 51 39 30 22 18 19 28 29 26 22 22 37 47 46 37 28 37 47 65 84 82 66 48 44 37 28 30 32 32 34 37 43 55 68 84 94 91 89 93 101 99 97
9 9 10 11 13 15 18 20 22 24 27 27 24 26 28 30 34 40 50 62 75 84 90 96 99 103 102 101 102 101 101 100 101 101 100 102 99 97 96 94 99 102 103 105 102 101 99 98 99 97 89 82 74 59 45 38 25 18 22 33 37 33 28 32 40 49 62 73 73 51 39 64 86 93 89 75 58 43 39 34 26 28 32 32 47 68 77 90 99 100 101 100 100 99 103 101 100
9 9 8 9 9 11 12 13 14 15 17 16 16 17 18 20 24 29 34 42 53 63 73 81 87 93 95 95 97 96 96 96 97 99 98 96 95 95 98 100 103 101 99 99 95 94 92 90 93 83 66 55 48 39 29 21 23 39 55 58 46 35 39 54 69 82 92 95 88 56 44 82 105 96 78 57 47 43 37 31 25 26 34 35 55 89 95 96 98 97 99 100 101 98 99 96 86
11 10 9 9 9 9 9 9 10 11 12 12 13 13 13 14 16 21 25 30 37 45 53 61 66 71 74 77 78 78 80 83 84 84 81 79 82 85 90 91 90 87 82 78 72 69 64 63 63 51 39 33 29 22 17 31 56 76 75 55 45 48 53 67 87 105 109 92 69 49 52 78 86 70 49 37 37 39 33 27 25 23 31 33 38 59 66 71 77 81 88 93 97 94 90 84 75
13 13 12 11 10 9 9 8 9 9 9 10 10 11 12 12 12 14 15 18 22 27 32 38 42 45 49 51 54 58 61 65 64 62 61 63 67 69 71 69 65 61 55 51 45 40 33 29 26 21 19 18 18 21 32 55 66 67 61 40 38 55 68 86 102 98 85 72 62 57 61 61 52 38 30 33 34 31 27 24 25 23 25 27 27 36 42 53 62 63 65 72 85 92 91 90 91
14 14 14 13 12 11 10 9 9 8 8 8 8 9 9 10 10 11 11 12 13 15 18 19 22 24 26 28 31 34 37 40 39 39 41 43 46 45 43 40 37 33 29 25 21 18 15 14 11 11 14 16 22 34 49 56 50 45 38 25 32 68 93 89 75 63 63 74 75 59 50 46 34 25 27 31 27 25 25 22 24 24 25 26 27 34 41 50 56 56 56 63 80 96 100 100 101
14 14 14 14 14 13 12 11 10 9 9 8 8 8 8 8 8 9 9 9 10 11 12 12 13 14 14 14 15 16 18 18 18 20 22 23 23 22 20 19 17 14 14 12 11 11 9 10 9 10 15 19 22 28 36 36 35 31 23 23 35 70 85 68 67 72 75 80 67 46 42 39 27 24 26 23 22 27 28 26 27 26 28 31 32 35 42 50 52 53 58 64 74 89 98 99 99
15 15 15 15 15 14 13 13 12 11 11 10 9 8 8 8 8 8 8 8 8 8 9 9 10 10 10 10 10 10 10 10 11 11 12 13 12 12 11 10 10 9 9 8 8 9 10 11 9 11 14 19 19 15 17 18 22 23 26 32 36 66 84 87 100 85 77 83 59 46 50 39 26 25 25 20 19 23 24 25 28 29 30 30 31 34 37 46 52 54 57 60 61 70 88 98 99
16 15 15 15 15 15 15 14 14 13 12 11 10 10 9 9 8 8 8 8 8 7 8 8 8 8 8 8 9 8 8 8 9 9 10 10 10 10 10 9 9 8 8 9 10 9 10 11 11 14 14 17 16 11 13 15 23 26 30 28 26 63 98 106 98 73 81 96 76 68 61 39 27 22 19 20 20 21 22 22 26 27 25 25 27 31 37 45 51 53 54 54 53 56 70 80 90
17 17 17 17 17 17 16 15 15 14 14 13 12 11 11 10 9 9 8 8 7 8 7 7 7 7 7 7 7 7 8 8 8 9 10 10 10 9 8 9 8 8 9 7 8 13 16 17 18 20 19 20 16 12 15 21 28 24 20 19 18 46 82 85 66 66 93 100 93 84 52 27 22 18 19 21 20 22 24 22 24 24 24 25 25 29 35 40 42 46 49 50 57 68 75 75 84
19 18 19 20 20 19 19 18 17 16 15 14 13 12 12 11 10 10 9 9 8 8 8 8 7 7 8 7 8 8 8 9 10 9 10 18 26 22 15 12 10 10 10 14 32 54 60 59 60 61 58 53 46 39 37 46 47 33 30 32 30 38 53 53 46 74 106 98 85 60 28 21 21 22 35 47 43 32 29 27 26 26 26 26 33 42 41 40 42 47 54 60 75 91 98 93 93
21 21 21 22 23 22 21 20 19 18 16 15 14 13 13 12 11 11 10 10 9 9 8 8 8 8 8 8 8 8 9 9 9 9 9 19 30 27 18 13 15 17 25 50 79 95 96 94 95 92 92 90 88 81 72 79 82 75 75 58 38 36 43 61 79 98 97 69 46 27 17 20 19 32 58 77 64 36 27 26 26 30 37 46 64 74 60 52 56 62 74 86 95 98 102 104 104
25 25 24 25 26 25 24 23 21 20 18 17 16 14 14 13 12 12 11 11 11 10 10 10 10 9 9 9 9 9 10 10 9 11 11 13 17 20 21 24 33 45 67 92 100 102 98 96 101 98 97 99 100 99 91 94 98 96 90 66 55 69 78 88 92 77 53 31 21 18 21 26 37 64 84 89 71 49 47 46 46 59 75 85 94 98 84 75 78 82 90 100 102 101 104 107 102
30 29 28 28 28 27 26 25 24 22 20 18 17 16 15 14 13 13 12 12 11 11 11 11 11 11 10 9 10 11 11 11 11 13 13 13 13 16 22 27 33 47 80 104 98 101 103 95 98 100 99 100 99 100 100 100 100 96 91 84 85 90 77 60 47 34 26 21 22 27 35 44 57 75 90 96 93 87 85 84 84 92 99 97 98 102 99 95 96 97 99 101 100 97 101 102 96
33 32 31 31 30 29 28 27 25 23 22 20 19 18 17 16 15 14 14 13 12 12 12 13 13 12 12 11 12 12 12 13 15 15 13 13 12 12 13 14 15 16 47 93 101 96 103 102 98 98 98 99 99 97 98 102 102 98 96 89 73 54 37 27 23 23 25 24 32 43 49 63 67 64 74 89 101 101 97 98 95 98 100 95 99 99 96 99 100 100 101 101 99 94 96 101 100
35 34 33 32 31 29 28 28 27 25 23 22 21 20 19 18 17 16 15 15 14 14 14 14 14 13 13 13 13 13 15 15 16 15 15 16 14 13 11 10 13 8 20 70 101 95 98 103 96 97 99 97 98 96 94 99 103 98 87 66 41 28 22 21 22 24 27 25 33 43 51 79 90 78 84 93 99 101 100 94 79 88 102 97 98 98 95 98 99 99 100 101 101 98 99 101 102
36 35 34 32 31 30 29 29 27 26 25 23 22 21 20 19 18 18 17 17 16 16 16 15 14 14 15 15 15 16 17 18 17 16 17 19 18 16 15 12 14 14 13 34 66 86 98 102 99 101 99 94 95 98 97 97 98 86 63 39 24 20 19 20 23 22 23 21 25 32 41 70 84 80 90 92 94 101 99 90 71 78 100 101 100 101 97 97 97 99 100 100 99 100 103 102 103
36 36 35 34 32 30 29 29 28 27 26 25 24 23 22 21 20 19 18 18 18 17 16 16 15 15 17 17 18 19 21 20 19 19 20 22 22 19 18 17 16 18 18 18 29 49 68 81 90 95 98 102 102 101 100 94 81 57 33 24 20 21 22 21 22 21 22 21 21 26 33 47 61 70 78 80 92 99 95 101 89 72 84 98 99 100 100 99 100 101 101 101 101 101 103 104 106
37 37 36 34 33 31 30 29 28 27 26 25 25 23 22 22 21 20 20 19 19 18 17 17 17 18 20 20 22 24 24 23 21 22 23 24 26 24 22 21 20 20 21 23 23 26 35 44 54 59 69 82 84 78 71 58 43 30 23 24 25 25 25 23 23 23 23 23 22 25 27 30 40 51 63 81 101 102 96 106 96 66 71 90 91 93 100 102 101 103 101 95 92 95 99 101 97
37 37 36 35 33 31 31 30 29 28 27 26 25 24 24 23 22 21 21 21 19 19 19 19 21 22 24 25 27 28 26 25 24 25 28 29 30 30 29 25 23 24 23 24 25 27 34 46 52 40 33 39 42 39 35 28 27 28 29 30 29 28 27 26 26 26 24 25 24 24 24 26 33 39 48 65 81 92 100 102 93 80 85 97 96 94 97 100 101 102 96 83 76 78 85 88 82
35 35 34 34 33 32 31 30 29 28 27 26 25 25 25 24 24 23 22 22 20 20 21 24 28 29 29 30 31 30 28 28 28 30 32 35 36 34 33 30 27 27 27 26 26 28 37 61 74 51 38 44 38 30 29 31 36 36 36 35 32 30 30 31 30 29 28 29 31 30 29 29 36 44 46 45 52 79 103 101 94 97 98 101 102 93 89 96 101 98 87 75 70 68 73 81 82
32 33 33 33 32 32 31 30 28 28 26 26 27 27 28 28 27 25 23 22 21 22 25 30 34 34 31 32 32 31 31 32 34 37 38 40 40 38 36 33 31 28 27 26 25 27 34 50 55 41 57 81 61 41 41 43 44 43 41 38 38 38 38 38 37 36 35 36 43 46 46 44 48 61 70 68 66 81 101 100 94 99 98 96 97 89 85 86 82 79 77 70 69 71 76 84 86
29 30 31 32 32 31 30 29 28 27 26 26 27 28 30 30 29 26 24 24 24 27 31 34 35 34 32 33 35 35 36 38 39 41 41 41 39 37 35 31 30 28 25 25 22 24 29 33 32 29 55 81 64 46 49 49 46 45 43 39 40 44 45 46 44 44 42 41 49 57 61 62 64 72 83 91 89 87 93 93 88 92 94 93 96 95 94 86 74 78 86 80 80 85 87 90 88
27 29 29 30 31 30 28 27 27 26 26 26 26 29 31 31 30 28 26 29 31 32 35 37 37 34 32 36 40 41 42 41 42 41 39 38 36 33 32 29 27 25 24 25 22 23 27 27 29 31 37 49 52 48 49 49 45 44 44 41 41 44 48 52 51 49 48 46 51 61 67 71 74 77 83 94 97 93 93 94 92 93 98 97 94 96 100 98 94 94 88 83 90 96 95 96 94
26 27 29 30 30 29 27 26 26 26 26 27 27 29 31 30 30 30 30 34 36 36 39 42 40 34 33 36 39 41 41 39 38 37 34 32 31 28 27 26 25 24 24 25 23 22 25 27 35 51 54 50 52 52 49 48 44 43 44 47 52 51 51 54 54 56 57 56 57 62 68 76 86 90 92 97 102 100 100 101 99 98 102 97 90 97 102 101 100 88 76 81 93 97 98 98 95
27 28 29 31 30 29 27 26 26 26 27 29 29 30 30 30 31 32 33 35 37 38 39 40 36 32 31 31 33 33 33 33 32 30 29 27 26 26 26 26 25 25 26 26 28 28 32 36 40 55 65 58 53 54 53 47 43 44 48 54 60 61 60 58 59 63 64 65 67 67 69 77 90 100 99 97 99 100 101 101 98 96 99 99 98 100 94 88 93 89 84 92 96 97 100 98 95
27 29 30 30 29 29 28 26 26 28 30 31 31 30 29 29 31 32 32 32 33 35 34 32 31 29 28 27 27 28 28 28 29 28 28 26 26 27 27 30 30 32 34 36 42 44 44 46 43 45 54 55 53 55 55 48 43 48 56 62 66 67 68 67 70 77 78 79 82 80 77 76 85 98 101 99 99 100 100 100 98 94 93 92 91 88 77 74 82 86 87 89 91 95 99 100 97
28 29 30 29 29 28 27 27 28 30 31 33 32 30 29 29 30 31 30 30 30 30 29 28 28 27 28 28 26 27 29 30 32 32 32 31 32 35 37 39 41 44 48 51 55 56 53 53 53 52 55 55 52 51 51 47 46 53 61 68 70 71 71 70 76 89 94 95 98 99 94 86 83 87 93 97 98 97 96 93 90 84 80 77 76 77 75 73 74 74 75 77 82 89 96 103 99
29 30 30 29 28 28 28 29 31 32 32 33 32 30 30 30 29 30 29 29 29 29 30 32 33 34 36 36 33 34 36 38 42 42 41 42 42 46 50 52 53 55 58 61 62 62 61 61 61 59 56 53 50 48 49 50 55 62 68 72 74 74 74 72 74 86 97 101 103 107 106 101 96 90 87 85 83 81 80 78 77 76 77 76 75 74 74 74 74 73 71 76 83 89 98 104 98
31 32 31 30 29 29 30 31 32 33 33 33 31 31 31 29 29 31 33 35 35 36 41 43 45 48 49 47 46 47 48 49 55 56 55 56 57 60 62 62 62 60 59 62 64 65 67 66 64 60 55 53 51 50 53 60 67 72 74 77 77 75 73 71 69 72 81 89 93 95 94 94 98 99 96 93 90 86 82 83 85 89 90 89 86 81 76 71 70 72 73 79 88 94 103 107 101
35 35 33 32 33 32 32 33 34 34 33 32 32 32 32 33 38 41 43 46 48 52 57 57 57 58 60 61 60 60 62 66 71 73 71 71 72 72 69 65 63 63 63 64 66 69 70 66 61 56 51 50 51 54 60 67 72 76 78 78 77 75 71 67 62 60 66 77 85 89 88 86 87 92 97 99 99 98 96 97 96 96 94 92 91 86 79 72 67 69 74 83 94 102 107 108 104
38 37 36 35 34 34 34 34 35 35 35 37 38 41 47 52 54 57 61 64 69 72 70 70 70 68 68 70 71 72 75 82 86 86 83 80 79 77 71 65 64 65 67 69 70 72 69 62 56 52 49 49 53 58 65 71 76 79 79 75 71 68 66 64 62 61 65 73 83 90 92 91 86 86 91 94 96 97 96 95 92 90 89 88 89 86 82 79 73 73 78 87 98 104 105 105 103
38 36 36 36 34 35 35 36 40 40 42 51 52 56 74 79 73 75 80 85 91 90 83 83 88 86 83 81 82 81 82 89 93 91 87 83 80 77 72 69 69 72 74 75 73 67 59 52 47 46 48 51 58 65 71 76 78 80 77 70 65 63 63 67 70 69 69 71 74 78 78 78 77 76 79 80 81 82 81 81 80 80 83 86 87 87 86 87 86 86 88 93 100 103 105 106 105
39 38 37 37 37 39 39 41 45 45 54 70 70 74 95 101 93 90 90 93 99 98 93 93 96 94 91 90 92 90 86 86 88 88 86 82 79 77 75 73 75 79 77 69 61 56 56 59 61 62 61 61 65 70 74 77 77 76 71 64 61 63 65 68 72 73 73 72 72 72 70 68 67 67 69 70 69 69 68 70 73 75 79 83 84 85 87 92 98 101 100 99 102 104 106 108 107
39 41 40 39 40 43 44 46 49 58 76 88 87 92 105 110 104 96 92 97 101 100 98 98 98 96 95 95 97 95 89 85 84 86 87 84 81 79 77 76 75 77 74 67 69 79 86 91 94 92 85 78 74 71 71 72 71 69 68 67 68 71 73 76 79 76 74 76 77 76 74 69 66 65 68 71 69 66 64 64 68 71 74 77 80 83 86 92 100 106 107 103 101 102 105 107 107
42 44 43 42 46 48 51 54 59 75 93 98 98 105 110 110 106 98 96 101 102 102 100 98 99 99 97 98 98 96 93 89 89 92 93 92 90 83 77 77 79 80 77 80 90 98 102 102 101 103 101 97 91 83 75 68 66 68 69 72 74 75 79 82 82 77 73 76 76 74 70 65 62 61 63 67 67 63 60 58 60 62 65 69 75 80 85 89 95 102 107 105 102 101 102 104 106
42 44 45 46 50 52 58 65 73 89 101 103 105 109 109 108 106 102 102 103 102 104 102 98 98 98 97 98 99 98 96 90 90 96 99 100 98 92 83 78 80 77 70 81 94 93 93 94 91 96 99 101 102 98 93 88 85 86 85 83 79 75 77 76 73 71 69 67 64 62 63 60 55 52 53 55 56 56 55 53 53 55 58 65 71 77 81 81 82 86 92 98 103 105 104 102 103
42 44 48 51 53 58 64 69 77 90 98 100 105 107 106 107 106 104 104 104 105 105 104 101 101 102 102 101 99 97 94 88 86 92 97 100 100 98 91 81 78 72 58 72 98 101 96 94 92 95 92 92 101 102 100 101 100 100 99 96 89 81 78 76 70 65 60 57 56 56 61 61 55 50 49 48 46 47 49 49 49 51 59 70 77 82 85 84 81 78 76 80 88 96 100 100 99
43 44 49 53 55 58 60 61 66 76 82 87 98 104 105 105 105 105 104 105 106 105 104 104 105 104 100 98 97 93 90 87 86 89 92 96 96 94 91 80 74 71 58 64 92 105 102 97 94 97 95 92 99 102 101 100 100 103 103 101 97 89 83 82 77 68 60 56 55 55 56 57 56 53 50 48 47 46 48 48 47 48 56 67 74 77 77 78 80 83 81 76 76 81 87 92 95
39 41 47 52 53 53 54 55 57 63 68 73 84 97 104 105 105 105 105 104 103 102 103 102 103 102 97 94 94 89 87 88 88 90 93 98 99 96 98 92 78 73 65 64 85 101 102 100 99 98 100 99 98 101 102 99 98 101 102 101 101 96 90 87 84 77 69 61 55 53 54 55 57 58 56 55 54 52 50 49 47 45 46 52 59 62 63 64 68 75 82 83 81 79 80 83 87
38 41 46 48 49 50 50 51 52 56 61 65 72 84 97 105 105 105 105 104 102 102 103 102 102 101 97 95 93 90 89 91 90 94 99 104 105 104 107 106 95 84 70 59 76 101 104 101 101 96 93 96 98 100 102 100 99 100 101 100 101 101 100 97 94 91 83 71 59 55 57 58 56 56 56 55 53 51 50 48 48 47 43 42 44 48 51 54 56 60 67 75 79 81 82 83 82
42 44 46 45 45 47 50 50 50 55 59 61 67 77 89 101 106 107 107 106 104 104 103 103 103 103 101 96 93 90 90 92 94 99 106 108 107 106 107 108 103 94 81 63 65 95 109 99 94 91 87 94 102 102 102 101 99 100 100 100 101 101 101 100 99 100 99 91 78 71 69 65 60 58 54 49 46 46 46 46 47 49 47 43 42 42 43 45 48 50 53 59 65 71 81 88 89
49 47 46 46 47 49 51 51 52 56 59 63 70 80 91 101 107 108 107 107 108 106 103 103 103 103 103 99 96 96 95 96 97 99 104 107 104 103 105 106 103 97 96 85 70 84 105 100 95 96 94 98 103 102 102 101 100 102 101 100 102 101 99 100 101 101 104 106 102 97 92 83 79 77 70 63 60 58 53 49 48 49 50 49 47 46 46 47 49 50 51 53 56 60 68 80 89
58 57 54 54 56 57 56 57 62 63 65 72 79 89 99 105 107 107 104 104 107 106 104 103 102 101 102 101 101 103 103 102 101 98 100 105 106 105 103 103 104 101 101 100 89 89 102 102 100 102 101 101 102 101 102 101 100 100 92 89 98 103 100 98 99 101 103 104 105 107 107 101 96 95 91 85 84 83 77 68 60 58 57 55 53 53 54 55 56 55 55 54 55 56 58 67 80
65 67 68 63 62 68 69 71 79 83 83 88 95 102 107 106 103 102 101 100 100 100 101 98 98 99 101 103 106 107 107 106 104 99 97 101 104 106 106 102 102 102 100 102 100 97 100 101 100 101 101 102 102 101 101 100 99 92 77 72 85 101 106 102 99 102 104 103 103 103 106 107 103 102 101 97 94 93 89 82 76 74 71 66 63 62 61 61 60 59 58 56 53 53 53 55 67
Wind_Speed
80 79 78 78 77 77 76 76 76 77 78 78 78 79 79 79 79 77 76 76 76 76 75 75 76 76 75 75 75 76 76 76 76 76 76 76 76 76 76 76 76 75 75 75 75 76 76 76 77 78 79 79 80 81 82 83 84 85 86 87 88 89 90 91 91 91 90 89 87 86 83 82 79 77 75 74 72 72 70 68 67 64 62 58 51 49 51 54 56 58 59 60 60 59 57 56 52
82 82 81 81 80 79 79 79 78 78 79 80 81 81 81 80 79 78 77 78 79 78 77 77 78 78 77 77 77 77 78 79 78 78 78 78 78 78 79 78 78 77 77 77 77 78 78 79 79 80 81 81 82 83 84 84 85 87 88 89 90 91 92 93 93 92 91 89 87 85 83 82 80 77 76 75 75 73 71 67 65 63 61 57 52 50 53 57 60 61 63 63 61 59 58 57 52
85 85 84 84 83 83 82 81 80 80 81 82 83 82 82 81 80 79 79 80 81 80 80 79 80 80 79 79 79 79 80 80 79 80 80 80 80 80 81 80 80 79 79 79 79 80 80 80 81 82 82 83 84 84 85 86 87 88 90 91 92 93 94 94 94 92 90 89 87 85 83 82 80 77 74 74 73 72 70 67 64 63 61 58 56 56 57 60 62 62 61 59 58 58 57 55 50
86 86 87 86 86 85 84 83 83 83 83 84 84 82 82 82 80 80 80 81 82 82 81 81 81 81 81 80 80 80 81 81 81 81 82 82 82 82 82 82 81 81 81 81 81 82 82 82 82 83 84 85 85 86 87 88 89 90 91 92 94 95 95 94 93 91 89 88 86 84 82 80 78 74 71 70 71 72 70 68 65 63 62 61 61 60 59 58 59 59 57 55 56 57 54 50 45
88 88 88 88 88 87 86 86 85 85 85 86 85 82 83 82 81 81 81 82 83 83 83 83 83 83 82 82 82 82 83 83 83 83 83 83 83 83 83 83 83 83 83 83 83 83 83 83 84 85 86 86 87 88 88 89 90 91 93 94 95 94 93 91 89 89 88 86 85 83 81 79 77 75 72 71 73 73 71 68 65 62 62 61 61 59 56 56 56 57 56 56 56 53 49 44 39
91 90 90 89 89 89 88 87 87 88 87 87 85 83 83 82 81 81 82 84 85 84 85 84 85 85 85 85 85 84 84 84 85 85 85 85 85 85 84 85 85 85 85 85 85 85 85 85 85 86 87 88 89 89 90 91 91 93 93 92 89 88 87 87 88 89 87 86 84 83 82 81 80 78 77 76 75 72 69 67 64 62 61 60 59 58 56 56 57 59 58 57 52 45 41 38 35
94 93 93 92 91 90 90 90 90 90 90 89 87 85 83 82 82 82 83 85 86 87 87 87 87 87 87 87 87 87 86 86 86 86 86 86 86 86 86 86 86 86 86 86 86 86 86 86 87 88 89 89 90 91 92 92 92 93 92 89 88 88 89 90 91 91 89 88 87 86 85 83 82 81 79 78 75 72 69 67 65 63 61 58 57 58 58 58 59 59 57 53 45 39 36 34 34
97 96 96 95 94 93 92 92 92 92 92 91 89 87 85 84 85 84 85 86 87 87 88 88 89 90 90 89 89 88 87 87 87 88 88 88 88 88 88 88 88 88 88 88 87 87 87 88 88 89 90 90 91 92 93 93 95 95 94 93 94 95 95 95 95 94 92 91 89 87 86 84 82 81 79 77 74 71 68 66 64 63 60 59 58 59 59 59 58 57 54 48 40 36 34 33 34
99 99 98 97 97 96 95 95 95 95 94 93 91 89 87 88 89 88 87 87 87 87 88 89 90 91 91 90 90 90 89 89 89 89 89 89 89 89 89 89 89 89 89 89 88 88 88 89 90 91 91 92 93 94 95 96 97 96 95 96 96 97 97 97 96 95 93 91 88 87 86 84 82 80 77 74 72 69 66 64 63 61 60 60 59 59 58 58 56 53 49 43 38 36 35 33 33
96 98 99 99 99 99 98 98 97 97 96 95 93 91 91 91 92 91 90 90 89 89 89 90 90 91 92 90 90 91 91 91 91 91 90 90 90 90 90 90 91 91 91 90 89 90 90 91 92 92 93 94 95 95 95 95 94 93 94 96 97 98 98 97 96 95 92 90 87 87 85 83 81 78 74 71 69 66 64 63 62 61 60 59 58 57 56 54 51 47 43 40 39 39 37 34 33
93 95 97 98 99 100 101 100 100 99 98 96 95 93 93 94 94 94 93 92 92 92 92 92 93 93 93 93 93 93 94 93 93 93 93 93 92 93 93 92 93 92 92 91 91 92 92 93 93 93 94 94 93 93 93 93 92 94 96 98 98 97 97 97 96 93 90 88 87 86 83 80 77 73 69 66 62 61 61 61 60 59 58 57 56 54 52 49 44 41 39 40 42 40 39 36 33
92 93 94 96 97 99 100 101 102 101 100 98 97 97 97 96 96 96 95 95 94 95 95 95 95 95 95 96 96 96 96 96 96 95 95 95 95 95 95 95 94 94 94 94 93 93 94 93 93 93 91 90 90 90 91 92 94 96 97 97 96 96 96 95 92 90 89 88 85 81 78 75 72 68 63 59 57 58 59 59 58 57 56 54 53 51 48 44 39 38 39 41 42 40 38 36 33
91 92 92 93 95 96 97 99 99 100 99 98 98 99 99 99 98 98 97 96 96 96 97 97 97 97 97 98 98 98 98 98 98 97 97 97 97 97 97 96 96 96 95 94 94 93 91 91 90 88 87 87 88 87 89 93 95 96 95 94 95 94 92 90 88 88 86 83 79 76 74 73 71 66 61 58 58 59 57 55 55 54 52 51 49 47 44 41 37 37 39 39 39 37 35 34 33
90 91 92 93 94 94 95 96 96 96 96 95 96 97 97 98 98 99 99 98 98 98 98 98 98 98 99 99 99 99 99 99 99 98 98 98 98 98 98 97 97 96 95 94 91 88 87 88 88 86 84 81 82 85 89 93 92 92 93 92 91 88 88 88 86 83 79 76 76 75 73 70 67 63 61 61 61 59 55 54 55 52 50 48 46 42 38 35 32 33 35 35 35 34 33 31 30
87 89 90 92 93 93 94 94 93 94 93 92 93 94 95 95 96 97 98 98 99 99 100 100 100 100 100 100 100 100 100 100 99 99 99 99 99 99 98 97 97 96 95 93 87 83 84 84 82 80 81 81 83 84 85 87 90 91 89 85 84 84 84 83 80 76 73 73 72 71 70 67 62 59 60 61 61 59 58 58 56 51 49 46 41 35 32 29 30 32 34 36 35 35 34 31 29
86 87 88 90 91 92 92 92 92 92 91 91 92 92 93 93 94 95 96 97 98 99 99 100 101 101 101 101 101 101 101 101 101 101 100 100 100 99 99 98 97 96 96 95 88 85 82 76 73 77 84 85 83 80 81 85 83 79 77 77 79 81 78 75 73 71 70 70 70 70 68 64 58 57 59 60 62 61 60 59 56 50 48 45 38 33 32 32 33 35 35 36 36 36 35 34 33
86 86 87 88 89 90 90 89 89 89 89 90 90 91 92 92 92 93 94 95 96 97 98 99 100 101 101 101 101 102 102 102 102 102 101 100 100 99 99 98 98 97 97 97 94 92 89 82 80 84 86 83 82 81 79 75 66 63 68 72 75 75 71 69 69 69 68 70 72 70 66 60 58 61 65 66 66 64 60 58 55 51 48 47 43 39 38 38 39 39 38 37 36 36 35 35 34
86 86 87 88 88 87 87 86 86 86 87 88 89 90 91 91 92 92 93 93 94 95 96 97 99 99 100 100 101 101 102 102 102 101 100 99 99 98 98 98 98 98 97 96 95 94 93 90 90 89 86 83 81 74 65 63 62 62 66 70 72 69 64 63 66 70 71 72 72 70 67 60 60 66 66 64 64 63 61 57 55 52 49 47 45 41 40 38 38 39 38 36 34 33 34 33 32
86 86 87 87 87 86 85 84 83 84 84 85 86 88 89 90 91 91 92 92 92 93 94 95 96 96 97 98 99 100 101 101 100 99 98 97 96 96 96 97 96 96 95 94 93 92 90 89 88 86 83 80 73 62 59 63 64 65 69 72 69 61 59 64 70 73 72 71 70 69 69 63 62 67 63 60 62 60 58 58 54 52 48 46 44 41 39 37 36 36 34 33 32 32 33 33 32
85 86 87 87 86 85 84 83 82 82 82 83 84 85 86 87 88 89 90 91 91 92 93 93 93 94 95 96 96 98 98 97 96 95 95 94 94 94 94 94 94 94 92 91 90 89 87 86 85 81 77 75 71 66 65 65 65 69 71 68 61 56 62 69 69 68 67 69 70 67 66 64 64 66 62 61 62 56 54 56 53 49 46 44 42 39 38 36 35 34 33 32 33 33 32 32 32
84 85 85 85 84 84 83 81 80 80 81 81 82 83 83 84 85 86 87 88 89 90 91 91 92 92 93 94 94 95 94 93 93 92 92 92 92 92 92 92 92 90 89 88 86 85 84 82 81 77 73 72 72 70 67 65 66 66 61 57 54 51 55 61 61 63 65 66 67 63 61 62 62 61 61 62 61 57 54 54 51 46 45 43 40 38 36 34 33 34 33 33 35 35 34 32 32
81 83 84 83 83 81 80 79 79 79 79 79 80 80 81 81 82 82 83 84 86 87 88 88 89 90 90 91 92 91 90 89 89 89 89 88 88 88 88 88 88 86 85 83 82 80 79 77 74 71 68 68 68 65 62 61 61 59 56 55 54 48 46 52 58 60 60 60 59 57 59 61 61 60 62 61 60 58 55 53 49 46 44 42 40 37 35 33 32 33 33 33 33 34 35 34 32
79 80 81 81 80 79 78 77 77 77 77 77 77 78 79 79 80 80 81 82 82 83 84 84 85 86 87 87 87 86 85 85 85 85 84 83 84 85 84 84 83 81 79 77 75 72 70 68 65 62 62 63 62 59 56 56 56 57 57 55 55 53 51 54 59 57 54 57 56 57 63 65 64 62 62 62 60 58 55 52 48 45 43 40 38 36 33 32 31 31 31 30 30 31 33 34 33
76 77 78 78 77 76 75 74 75 75 75 75 75 76 77 78 78 78 78 79 79 80 80 81 81 82 83 82 82 81 80 80 80 80 78 73 71 74 77 78 77 74 70 66 62 58 56 54 52 51 52 53 53 50 49 49 51 54 54 51 51 53 55 57 58 56 54 58 61 64 68 66 63 59 54 56 57 55 52 49 45 43 40 37 34 31 29 28 28 27 26 26 27 29 32 33 34
74 75 75 74 74 74 73 73 74 74 73 73 74 74 74 75 75 75 76 76 76 76 77 77 78 78 78 78 77 76 75 76 76 74 72 66 63 68 71 71 68 64 58 52 48 46 46 45 43 44 44 42 41 42 44 42 40 43 46 47 48 50 54 52 49 53 58 64 68 68 66 63 59 51 44 45 51 53 51 47 43 38 33 29 25 23 23 23 22 22 22 24 26 29 31 31 31
71 72 71 72 72 71 71 72 73 72 72 72 73 72 71 72 72 73 73 73 74 74 74 74 75 75 74 74 73 72 72 73 71 69 68 66 67 69 66 62 56 48 44 44 46 45 46 45 42 42 41 39 39 40 41 37 34 37 42 43 40 40 46 47 49 59 66 68 67 64 61 56 49 42 38 40 44 45 41 37 33 25 20 18 18 18 19 20 20 20 22 25 28 29 29 29 29
70 70 69 70 71 70 69 70 71 71 71 70 70 70 69 69 70 70 71 71 71 71 72 72 72 72 72 71 70 70 70 69 67 66 67 66 67 66 62 58 52 44 37 37 43 44 43 43 41 41 41 40 41 38 34 31 34 37 37 36 33 37 48 54 59 65 66 64 60 56 51 45 41 38 36 35 33 27 22 23 22 15 11 10 13 16 18 19 21 23 23 25 28 28 29 30 30
69 69 68 69 69 68 68 69 70 69 69 68 68 68 67 67 69 69 69 68 68 68 69 69 70 70 70 69 68 68 68 66 65 65 65 65 65 64 61 59 55 52 43 35 39 40 38 38 37 38 37 37 38 37 34 31 32 33 33 39 44 51 58 60 60 60 58 55 50 47 42 39 40 40 38 36 28 20 18 21 18 12 10 10 13 17 20 22 24 26 27 26 28 29 30 30 30
68 68 68 69 68 67 67 68 68 68 67 67 66 66 66 66 67 67 67 67 67 67 68 68 68 68 68 68 67 67 66 64 64 64 63 62 63 62 60 58 54 53 49 45 48 45 40 39 37 36 34 35 38 38 39 37 36 38 44 53 60 62 61 59 57 55 53 50 47 44 38 35 37 37 37 35 30 26 26 26 19 13 13 12 13 16 20 23 25 26 26 28 30 32 33 32 31
67 67 67 68 67 66 66 66 66 66 65 65 64 64 65 65 66 66 65 66 66 67 67 67 68 67 67 67 66 65 64 63 63 62 61 61 61 60 58 57 54 53 52 51 54 51 45 43 41 39 36 38 42 44 46 47 47 52 59 64 64 62 59 56 54 53 52 49 48 44 39 37 38 38 37 34 32 31 31 28 21 17 16 15 14 16 18 21 22 23 24 26 28 31 33 32 30
65 66 66 66 66 65 64 64 64 64 63 63 62 63 64 64 64 65 65 65 66 67 67 67 67 67 66 66 65 64 64 63 63 61 60 60 60 60 58 56 54 54 54 53 53 52 52 54 54 51 46 43 48 53 55 58 61 66 67 65 61 56 54 52 51 50 49 48 45 42 40 40 40 40 37 33 32 32 31 29 24 21 21 23 23 21 21 24 26 28 28 28 29 30 32 33 33
63 65 65 65 66 64 63 63 63 62 62 61 61 63 64 64 64 65 65 66 66 67 67 67 67 66 66 65 64 64 63 62 62 61 60 60 60 60 58 56 55 54 54 53 52 49 55 64 66 64 61 57 60 65 67 68 70 68 64 59 54 51 49 47 46 44 44 43 41 38 38 39 40 41 38 35 34 33 33 33 30 26 27 30 31 28 26 30 34 35 35 36 36 36 35 37 38
62 64 64 64 65 63 63 62 61 60 60 61 61 62 64 64 64 66 66 66 66 66 66 66 66 66 65 65 64 64 63 62 62 61 60 60 60 60 58 56 55 54 54 54 50 45 52 65 67 66 67 67 69 71 70 68 64 60 56 52 49 47 45 43 41 39 38 38 36 34 33 34 37 39 39 40 40 38 35 33 31 29 30 32 34 33 32 34 37 38 41 42 42 40 37 35 35
62 64 63 64 64 63 62 61 60 59 60 60 61 63 65 65 65 66 66 66 65 65 66 66 66 65 64 64 64 64 63 62 61 61 60 60 60 59 58 56 54 54 54 53 49 42 49 63 62 60 64 66 66 65 62 59 55 52 50 47 45 43 41 39 36 34 33 32 31 29 28 28 31 34 36 39 41 39 36 34 32 31 33 35 36 36 36 38 38 38 40 39 38 36 32 30 31
62 63 62 62 63 62 62 60 59 59 59 60 61 63 65 65 66 66 66 65 64 64 65 65 65 65 64 64 64 64 62 61 61 60 60 60 59 58 57 56 54 54 53 52 49 43 49 60 56 51 58 62 60 57 54 51 49 46 44 42 40 38 36 34 32 30 28 26 25 24 23 23 24 27 30 33 37 38 38 38 36 35 35 35 36 37 37 37 35 35 36 35 34 33 30 29 30
61 61 61 61 62 62 61 60 59 59 59 60 61 63 64 65 66 65 64 63 63 62 64 65 65 64 63 63 63 62 61 60 60 60 59 59 58 57 56 55 54 53 52 51 49 45 49 57 54 49 54 60 59 55 52 49 46 44 41 39 36 34 32 30 29 27 24 22 21 20 20 20 20 22 25 29 32 35 38 40 38 37 36 32 31 32 34 32 29 32 34 34 33 32 30 29 30
61 61 61 61 62 62 61 59 58 59 59 60 61 62 63 64 64 64 62 61 61 61 62 63 63 63 62 61 61 60 60 60 60 59 59 58 57 56 55 54 53 52 50 49 47 45 48 52 52 50 54 58 57 53 51 47 44 42 39 37 35 32 30 28 28 25 23 21 19 17 17 17 18 19 21 24 27 29 32 34 34 33 33 30 27 29 31 29 28 31 33 32 33 32 30 30 31
60 60 61 61 62 61 59 58 58 59 59 60 60 61 62 62 62 62 60 59 60 60 60 62 62 61 59 59 59 59 59 59 59 59 58 57 55 54 53 52 51 49 48 48 46 44 46 47 47 50 52 53 52 51 48 45 43 40 38 35 33 32 30 28 27 25 23 20 18 16 15 16 17 18 19 21 23 24 26 27 28 27 28 29 29 29 30 30 31 31 30 30 32 32 31 30 30
59 59 60 60 61 60 59 58 57 58 58 59 59 59 60 59 59 59 58 58 58 59 59 61 61 59 58 58 58 58 58 58 57 57 56 55 53 52 51 49 48 47 46 46 44 42 41 43 44 48 51 50 49 48 45 43 41 39 37 34 32 31 31 30 28 27 24 22 20 17 15 15 17 19 21 22 23 24 25 26 27 28 28 29 30 31 32 32 32 30 28 29 31 32 31 30 28
57 58 59 60 59 59 58 57 56 56 57 58 58 58 58 57 57 58 58 57 58 59 60 60 59 58 57 57 58 58 57 56 55 55 54 52 51 49 48 46 45 44 43 42 41 39 39 42 44 47 50 49 47 46 43 42 40 37 35 33 32 31 31 30 29 28 26 25 22 20 17 17 18 22 24 25 26 27 28 29 30 31 31 31 32 32 32 31 29 28 27 28 30 31 31 30 29
56 57 58 59 58 58 57 55 55 56 56 57 58 57 56 56 57 58 58 57 58 59 59 58 57 57 56 56 56 56 55 53 53 52 51 49 47 45 44 43 41 40 40 40 39 39 40 41 42 44 46 46 46 44 43 41 38 36 35 33 33 32 32 31 29 28 28 27 26 24 22 20 20 23 26 28 29 30 31 31 32 31 31 30 30 29 29 28 27 27 27 28 30 29 29 30 29
54 56 57 57 57 56 55 54 55 55 56 57 57 56 55 55 56 56 56 56 57 57 56 56 55 54 54 54 54 53 52 51 50 49 48 46 44 42 40 38 37 37 38 39 38 38 39 40 41 42 44 44 44 43 41 39 37 36 35 34 34 34 34 33 31 29 28 29 29 29 27 25 24 24 26 27 29 29 30 30 29 28 28 28 28 28 28 28 28 28 27 28 28 28 28 29 28
53 55 56 55 55 54 53 53 54 54 54 55 54 53 54 54 53 53 53 54 54 54 53 53 52 51 52 51 50 49 49 47 47 46 44 42 40 38 36 36 36 37 38 39 39 38 39 40 40 40 42 42 42 41 39 37 36 36 35 35 35 35 35 35 33 31 30 30 30 31 30 29 28 28 29 29 29 29 29 29 29 29 29 30 30 30 30 29 27 26 26 26 26 26 28 29 29
52 53 53 53 52 52 51 50 51 52 51 52 51 50 51 50 50 50 51 51 51 50 50 50 49 49 49 48 47 46 45 44 44 43 41 39 37 35 34 35 36 37 38 38 38 38 39 39 39 40 41 41 41 40 38 37 36 36 35 35 36 36 36 35 34 32 31 31 31 31 31 30 29 30 31 32 33 33 33 33 33 33 33 33 33 32 31 29 26 24 23 24 25 26 28 30 31
50 51 51 50 50 49 48 48 48 49 48 48 48 47 47 47 48 48 48 47 46 45 45 46 46 47 47 45 44 43 43 42 42 41 40 37 36 34 33 34 36 37 38 38 38 38 38 38 39 39 40 40 40 39 38 37 37 36 35 35 35 35 35 35 33 31 31 31 31 32 32 31 30 30 31 32 33 34 34 34 34 34 34 34 33 32 31 29 26 24 23 24 25 26 28 29 29
49 49 48 48 48 47 47 46 46 47 45 45 45 44 43 45 46 45 44 44 42 40 39 40 41 44 44 43 42 41 41 41 40 40 39 36 35 34 32 32 35 36 37 36 36 36 36 37 38 39 40 40 40 39 39 38 37 37 36 35 34 35 33 32 31 31 30 31 31 31 31 31 31 31 31 32 32 32 32 32 33 32 32 32 32 31 30 28 27 26 26 26 26 26 27 27 27
48 47 47 47 47 46 46 46 45 45 43 43 43 41 41 44 44 43 43 42 41 41 40 40 41 42 42 41 40 39 40 40 39 39 39 36 35 33 32 32 34 35 35 33 32 31 32 33 35 37 38 39 39 39 39 38 37 36 36 35 34 34 32 31 30 29 29 29 29 30 29 29 29 29 29 30 30 30 30 30 31 31 31 31 32 31 30 29 29 29 29 29 29 28 27 26 26
47 47 47 47 46 46 45 45 44 42 42 42 42 39 40 44 45 43 41 41 41 42 41 42 43 42 41 41 40 39 39 39 39 40 39 37 35 34 32 31 32 32 31 28 25 24 25 27 30 32 34 37 39 40 40 38 37 36 35 34 33 32 31 30 30 29 28 28 28 28 28 28 27 26 26 27 27 27 27 27 28 28 29 29 30 30 30 31 31 32 32 33 33 32 30 29 28
48 48 47 46 46 45 44 44 42 42 42 43 41 39 41 45 45 42 41 42 43 43 43 43 43 42 42 41 41 41 40 40 40 40 39 38 37 35 33 31 31 31 28 22 17 16 18 21 24 28 32 37 39 40 40 40 37 36 35 34 33 32 31 31 30 29 29 28 28 29 29 28 27 27 27 26 26 26 26 26 26 26 26 26 26 27 28 30 32 33 34 35 36 36 35 33 31
49 48 47 46 46 45 44 44 43 44 45 44 42 41 43 46 46 44 43 44 45 45 45 44 43 43 43 42 42 42 41 40 40 40 39 39 38 36 34 33 33 32 28 23 20 20 17 15 18 22 26 33 38 39 37 36 34 33 34 34 33 32 32 32 31 30 30 30 29 29 29 29 29 29 29 28 28 27 27 27 27 26 26 25 25 25 26 28 30 32 34 36 37 39 39 39 38
49 48 47 47 47 46 46 46 45 46 47 46 44 43 44 47 48 46 45 46 46 46 46 45 44 44 43 43 43 42 42 41 40 40 40 39 38 37 35 34 33 31 28 26 25 25 20 16 18 20 22 26 30 32 33 34 34 34 34 35 34 33 32 32 33 32 32 31 29 29 29 30 31 31 31 31 30 30 30 29 29 28 27 26 26 26 26 27 29 30 32 33 35 37 39 41 41
50 49 48 48 48 48 47 47 47 48 48 47 46 45 46 48 49 47 47 47 47 47 46 45 44 44 44 44 43 43 43 42 41 40 39 39 38 37 36 35 33 30 27 27 28 27 24 20 21 25 27 30 30 31 36 38 37 36 35 36 36 35 34 34 35 35 35 33 31 30 30 31 32 32 33 33 33 32 32 31 31 30 29 28 28 28 29 31 31 32 32 33 33 34 36 38 40
51 49 49 50 50 49 49 48 49 49 49 48 48 47 47 49 50 49 48 48 47 46 46 45 45 45 45 45 44 44 43 42 41 40 38 38 37 35 35 34 33 30 27 27 28 29 30 26 23 25 28 34 38 39 41 40 38 37 36 36 37 36 37 37 37 38 38 38 35 33 33 33 34 35 35 35 35 35 35 35 34 34 33 32 31 31 32 32 33 34 34 34 34 34 34 36 38
51 50 52 52 51 50 49 49 50 50 50 50 50 49 49 49 50 50 48 48 47 47 47 46 46 46 46 46 45 44 43 42 40 38 37 37 36 35 34 33 33 30 28 29 28 29 34 32 24 21 23 32 41 45 45 43 41 40 40 39 40 40 41 40 39 39 40 40 39 38 37 37 36 36 37 37 37 37 37 37 37 37 36 36 36 36 35 35 35 35 35 36 36 36 36 36 36
51 52 53 52 51 50 51 51 50 51 51 51 51 50 50 50 51 51 50 49 48 48 48 48 48 47 47 46 46 44 43 41 39 38 36 36 37 37 35 34 33 31 28 30 30 30 36 36 27 21 23 30 40 45 47 47 45 44 44 43 43 43 41 39 38 38 39 42 43 43 43 42 40 39 39 39 38 38 38 38 38 38 38 38 38 38 39 39 38 38 37 37 38 38 39 39 38
52 52 52 51 51 51 51 51 51 51 51 51 51 50 50 51 51 51 51 50 50 50 49 49 49 48 47 47 46 44 43 41 40 39 38 37 37 38 37 35 34 33 32 33 34 34 38 40 34 31 34 39 44 46 47 49 48 47 47 48 47 46 45 43 41 40 40 41 44 47 47 46 44 43 43 42 41 40 40 40 39 39 40 40 41 41 41 41 41 40 40 40 40 40 40 41 41
51 51 51 51 51 51 52 51 50 51 51 51 51 50 50 51 52 52 52 51 51 51 51 50 50 48 47 46 45 44 43 43 42 41 40 39 38 38 39 37 36 37 37 38 39 39 42 46 48 48 48 50 53 53 53 54 54 51 51 52 53 53 52 51 49 47 46 44 44 47 50 50 48 47 46 45 45 44 44 44 43 42 43 43 43 43 43 43 43 43 43 43 43 43 42 42 43
51 51 52 52 52 51 51 50 50 50 50 50 50 49 50 52 53 53 53 52 53 52 52 51 50 48 47 46 45 45 45 45 44 44 43 42 41 41 40 39 40 40 41 44 45 45 47 50 55 58 59 60 62 62 62 62 61 59 56 54 55 56 56 54 53 53 54 52 49 48 50 52 52 51 50 49 48 47 47 47 46 46 46 46 45 45 45 46 46 46 45 45 44 44 44 43 43
Wind_Direction
252 253 253 254 255 256 257 259 259 260 260 260 261 261 262 264 265 267 268 269 269 270 270 271 272 273 274 274 274 274 275 276 277 279 280 281 282 283 284 285 286 286 287 287 288 288 288 288 289 289 289 290 291 292 293 293 294 295 296 297 298 299 299 300 301 301 301 301 302 302 301 300 300 300 299 299 299 299 299 299 299 299 300 300 297 292 290 290 290 291 292 295 297 300 302 303 304
252 253 253 253 254 255 256 257 258 258 259 259 259 260 261 263 265 267 268 268 269 270 271 272 272 272 273 273 273 274 275 276 278 279 280 281 282 283 284 284 285 286 286 287 287 287 288 288 288 289 289 290 291 292 292 293 294 295 295 296 297 298 299 299 300 300 300 300 300 301 300 299 299 299 299 297 298 298 298 298 299 299 299 299 296 291 289 290 291 290 291 294 296 298 300 301 303
252 252 253 253 254 254 255 256 257 257 258 258 258 259 261 262 264 265 266 267 268 269 270 271 271 271 271 272 273 274 275 276 278 279 279 280 281 282 283 284 285 285 286 286 286 287 287 288 288 288 289 290 291 291 292 293 293 294 295 296 297 297 298 298 298 298 298 299 299 299 299 298 298 298 298 297 297 297 298 298 298 298 298 297 294 291 290 290 290 290 291 294 295 297 299 300 300
251 252 253 253 253 254 255 255 256 256 257 257 258 259 260 262 263 264 265 266 267 269 269 269 269 270 271 271 272 273 275 276 277 278 278 279 280 281 282 283 284 284 285 285 286 286 286 287 287 288 289 290 291 291 292 292 293 294 295 295 296 296 297 297 297 297 297 297 298 298 298 298 298 298 297 296 297 297 297 297 296 296 296 295 293 293 292 290 290 290 291 293 296 298 299 299 297
251 252 253 253 253 254 254 255 255 256 256 257 259 260 260 261 263 263 264 265 266 267 267 268 269 269 270 271 272 273 274 275 276 277 278 278 279 280 281 282 283 284 284 285 285 285 286 286 287 288 288 289 290 291 291 292 293 293 294 294 295 295 295 296 296 297 297 297 297 297 297 297 297 296 295 295 296 296 296 296 295 294 293 293 293 293 292 290 289 289 290 293 296 298 299 297 294
250 251 252 253 253 253 254 254 255 256 256 257 258 259 260 262 263 263 263 264 264 265 266 267 268 269 270 271 271 272 273 274 275 276 276 277 278 279 280 281 282 283 283 284 284 285 285 286 286 287 288 289 290 290 291 292 292 293 293 294 294 295 295 295 297 298 297 297 297 296 296 295 295 294 294 295 296 295 295 294 294 294 293 293 292 291 290 288 288 288 290 293 295 297 298 296 291
248 249 251 252 252 253 253 254 254 255 256 257 258 259 261 262 262 263 262 263 263 264 265 266 267 268 269 270 271 272 272 273 274 274 275 276 277 278 279 280 281 282 283 283 284 284 285 285 286 287 288 288 289 290 291 291 292 293 293 293 294 295 295 295 296 297 296 296 296 295 295 294 294 293 293 294 295 294 294 294 294 293 293 292 291 290 289 288 288 289 291 292 292 294 295 296 292
248 248 249 250 251 252 252 253 254 255 256 257 258 259 260 261 262 261 261 262 263 264 265 266 267 268 268 269 270 271 272 272 273 273 274 275 277 277 279 280 280 281 281 282 283 284 284 285 286 287 287 288 289 290 290 291 291 292 291 292 293 293 294 294 295 295 294 294 294 294 294 294 294 293 293 294 294 294 293 293 293 293 293 292 291 291 290 289 289 290 290 289 288 288 290 294 291
248 248 248 249 250 251 252 252 253 254 255 256 258 258 259 260 260 261 261 262 262 263 264 265 266 267 268 269 270 270 271 271 272 273 274 275 276 277 278 279 279 280 280 281 282 283 284 285 286 286 287 288 288 289 289 289 290 291 291 292 292 293 293 293 294 294 293 294 294 294 293 294 294 294 294 294 294 294 293 293 293 293 294 293 293 292 291 291 291 291 289 286 284 282 284 289 288
248 248 248 248 249 250 251 252 253 253 255 256 257 257 258 259 259 260 261 261 262 263 264 264 265 266 267 268 268 269 270 270 271 272 273 274 275 277 277 278 278 279 279 280 282 283 284 285 285 286 287 287 288 288 288 289 290 290 291 292 293 293 293 293 293 293 293 293 293 293 293 294 294 295 295 295 295 294 293 294 295 295 295 295 294 293 293 293 292 290 286 283 280 279 281 284 283
248 248 248 248 249 249 250 252 252 253 254 255 256 256 257 258 259 260 260 261 261 262 263 264 265 266 267 267 268 268 269 270 271 272 273 274 275 276 276 277 277 278 279 280 281 283 284 284 285 285 286 286 287 287 288 289 290 291 292 292 293 293 293 293 293 293 294 294 294 294 295 296 296 297 298 297 297 296 296 296 296 297 297 296 295 294 293 293 291 288 283 280 278 279 279 279 279
248 248 249 249 249 249 250 251 252 253 254 255 256 256 257 257 258 259 259 260 260 261 262 263 264 265 266 267 267 268 269 270 271 272 272 273 274 274 275 276 276 277 279 280 281 282 283 283 284 285 285 286 287 288 289 290 290 291 292 292 293 294 294 294 294 295 295 295 296 296 297 298 299 300 300 298 299 301 299 298 297 298 298 297 295 294 292 290 286 282 280 279 279 280 279 277 275
248 249 249 249 249 250 250 251 252 253 253 254 255 256 256 257 257 258 258 258 259 260 261 262 263 264 265 266 267 267 268 269 270 271 272 273 273 273 274 275 276 277 278 280 281 282 282 282 283 283 284 286 287 288 289 291 291 292 293 294 294 294 294 294 295 296 297 297 297 298 299 300 300 300 298 298 300 302 300 299 299 298 297 296 294 293 292 289 285 282 282 282 282 280 277 275 272
248 249 249 250 250 250 250 251 252 253 253 254 255 255 256 256 257 257 257 258 258 259 259 260 261 262 263 264 265 266 267 268 269 270 271 272 272 273 274 275 276 277 278 279 280 281 281 281 282 283 284 285 286 288 290 290 291 292 294 294 293 294 295 296 297 297 298 298 298 299 301 301 300 298 297 298 299 300 299 299 300 298 297 295 294 294 292 291 289 286 284 283 280 275 272 271 270
249 249 249 250 250 251 251 252 252 253 254 254 255 255 256 256 257 257 257 258 258 259 259 260 260 261 262 263 264 265 266 267 268 269 269 270 271 272 274 275 276 277 277 278 278 279 280 282 283 283 284 284 285 287 287 289 291 293 294 294 295 296 296 297 298 298 297 297 297 299 300 300 298 296 298 298 297 297 296 297 299 298 296 294 293 291 288 286 285 283 280 278 276 272 270 268 267
250 250 250 250 251 251 251 252 253 253 254 254 255 256 256 257 257 257 257 258 258 259 260 260 261 262 262 263 264 265 266 267 267 268 269 270 271 273 274 275 275 276 277 277 277 278 279 280 281 282 283 284 284 284 286 290 292 293 293 294 295 295 295 297 297 296 295 295 295 296 296 295 294 294 296 296 295 296 296 296 297 297 295 292 289 283 279 277 276 275 274 274 275 273 272 271 270
250 251 251 251 251 251 252 252 253 254 254 255 255 256 256 257 257 257 258 258 259 259 260 261 261 262 263 264 264 265 266 267 267 268 269 271 272 273 274 274 275 276 276 277 278 278 279 279 279 280 282 283 283 285 289 290 288 288 289 291 291 291 294 295 293 292 292 293 293 294 292 290 290 291 293 293 293 294 295 295 295 294 292 289 286 281 277 275 274 273 271 272 276 278 277 276 274
251 251 251 252 252 252 253 253 254 254 255 255 255 256 256 257 257 258 258 259 259 259 260 260 261 262 263 264 265 265 266 266 267 269 270 271 272 273 274 274 275 276 276 277 278 278 279 279 279 281 282 283 284 287 287 283 282 283 284 285 286 291 292 290 288 290 291 291 291 291 290 288 288 290 291 292 292 293 294 294 294 293 291 287 286 282 278 276 275 275 273 272 273 275 276 275 273
251 251 252 252 253 253 253 254 254 255 255 255 256 256 256 257 257 258 259 259 259 260 260 260 261 262 263 263 264 265 266 267 268 269 270 271 272 273 274 274 275 276 276 277 278 279 279 280 280 281 283 284 284 283 281 280 282 282 282 283 287 291 289 286 287 289 290 289 289 289 288 288 289 290 290 290 291 292 293 293 292 291 290 287 284 281 278 276 275 275 274 271 267 267 271 272 271
251 252 252 252 253 253 254 254 254 255 255 256 256 257 257 257 258 258 259 259 260 260 261 261 262 262 263 264 265 265 266 267 269 270 271 272 272 273 274 274 275 276 277 278 279 279 280 280 281 281 282 282 281 279 279 280 281 281 283 284 287 286 284 285 287 288 288 288 287 287 287 288 289 290 290 290 290 291 292 292 292 290 288 286 284 281 278 276 275 274 272 269 265 263 265 267 268
251 252 252 253 253 253 254 254 255 255 255 256 256 257 257 258 258 259 259 260 260 261 261 262 263 263 264 265 265 266 267 269 270 271 271 272 273 274 274 275 276 277 278 279 280 280 281 281 282 282 282 281 280 280 280 279 279 280 280 281 281 279 281 285 286 287 288 286 286 286 288 290 290 290 291 291 291 290 290 290 290 289 287 285 283 280 278 275 274 274 271 268 265 262 260 261 266
251 251 252 253 253 254 254 255 255 255 256 256 257 257 258 258 259 259 260 261 261 262 262 263 264 264 265 266 266 267 268 270 270 271 272 273 273 274 275 276 277 278 279 280 281 282 282 282 283 283 282 280 280 281 281 280 280 280 279 278 276 273 276 281 284 286 285 284 285 285 289 291 292 292 293 292 291 290 290 288 287 286 285 284 283 281 278 274 272 272 271 270 267 263 259 257 262
251 251 252 252 253 254 254 255 255 255 255 256 257 258 258 259 259 260 261 262 262 263 264 264 264 265 266 266 267 268 269 270 270 271 272 274 275 276 276 277 278 279 280 282 283 284 283 283 283 283 281 280 281 282 282 281 282 282 280 277 275 270 269 276 283 283 280 281 283 285 289 291 291 292 293 293 291 290 288 287 286 286 286 286 285 283 279 276 274 271 270 269 266 264 262 258 259
250 251 251 252 252 253 254 255 255 255 255 256 256 257 258 259 260 261 262 263 263 264 265 265 266 266 266 267 268 269 270 270 270 271 273 275 276 276 276 278 279 281 283 285 285 284 283 283 283 281 281 281 282 282 282 282 281 280 279 278 277 274 274 279 281 278 275 278 280 284 288 289 291 293 295 294 291 289 288 288 288 288 289 290 291 289 283 277 274 271 268 266 263 264 265 263 259
250 250 251 251 252 252 253 253 254 254 255 255 256 257 258 260 261 262 262 263 264 265 266 266 267 267 267 268 268 269 269 269 270 272 272 272 271 273 276 279 281 283 285 286 283 281 281 281 280 278 278 279 279 280 282 280 275 274 276 277 277 278 278 278 273 271 274 278 280 283 285 287 291 292 290 286 286 286 287 288 288 289 293 295 297 296 288 277 270 266 264 263 262 262 262 260 257
250 250 250 251 251 251 251 252 253 254 254 255 256 257 259 260 261 262 262 263 264 265 266 266 267 267 267 268 268 269 269 269 270 271 271 268 267 270 274 277 280 282 285 285 279 277 277 278 277 276 274 275 276 277 278 275 270 268 274 278 276 272 270 269 268 271 275 277 279 282 284 286 288 286 280 278 280 284 288 290 289 293 301 303 304 305 297 286 273 263 260 260 259 258 257 255 256
249 249 249 250 250 250 250 251 252 253 254 255 256 257 258 260 261 261 262 263 264 265 265 266 266 267 267 268 268 268 268 269 270 270 269 269 268 269 270 271 272 274 279 282 278 277 277 277 277 277 274 273 273 270 264 263 270 276 278 276 268 263 266 270 271 273 274 276 278 280 281 280 277 273 269 269 274 283 290 285 281 292 306 296 290 290 286 282 273 265 259 257 258 257 255 256 257
248 248 249 249 250 250 250 251 252 253 254 255 256 257 258 259 260 261 262 263 264 264 265 265 265 266 267 267 267 267 268 269 269 269 270 270 270 270 269 269 269 268 267 264 268 275 279 278 277 277 273 270 268 262 254 255 267 275 274 273 273 273 275 275 273 271 272 273 275 274 274 274 272 267 261 260 263 270 266 258 259 270 276 256 256 264 264 265 268 268 264 259 259 259 257 256 255
247 248 248 249 250 250 250 251 252 253 254 255 256 257 258 259 260 261 261 262 263 263 263 264 265 266 266 267 267 267 268 269 269 269 270 271 271 271 271 270 268 267 262 254 258 266 274 275 273 271 269 271 269 261 257 258 260 263 268 275 279 280 278 275 272 269 269 268 266 265 263 262 261 256 253 250 249 254 253 251 248 243 247 248 251 260 264 269 270 267 264 260 256 254 253 252 251
247 248 249 249 250 250 251 252 253 254 255 256 257 258 258 258 260 261 261 261 262 262 263 263 264 265 266 266 267 268 268 269 269 270 270 270 271 270 270 270 268 266 262 257 258 262 267 269 267 265 265 270 269 263 264 266 266 270 275 280 280 278 276 273 271 269 268 266 262 261 256 250 249 248 248 247 246 249 252 252 242 226 232 238 237 245 259 270 269 261 257 256 254 250 248 247 248
248 249 250 250 251 251 252 252 253 255 256 257 257 258 258 259 259 260 260 260 261 262 263 263 264 265 266 267 267 268 268 269 269 270 270 270 270 270 270 269 268 266 264 261 261 263 265 266 265 265 265 263 263 264 267 270 274 279 281 282 280 277 275 273 271 270 269 267 263 261 256 250 247 245 244 245 245 244 245 246 236 225 228 233 231 229 241 252 253 254 256 256 257 254 251 250 253
248 250 250 251 252 252 252 253 254 255 256 257 257 258 259 259 259 259 259 260 260 261 262 263 264 265 266 267 267 268 268 269 269 270 270 270 271 270 270 269 267 266 266 264 264 266 269 270 269 269 268 265 265 269 272 275 279 281 282 281 280 278 277 275 274 272 271 270 266 261 257 253 248 245 241 236 234 235 238 242 242 239 233 234 234 228 234 246 246 250 256 259 259 258 259 260 261
249 250 251 251 252 253 253 253 254 255 256 257 257 258 258 258 258 258 258 259 260 261 262 264 264 265 266 267 267 268 268 269 269 270 270 270 270 270 270 269 268 267 267 266 265 266 270 273 273 274 274 272 273 275 277 279 281 282 282 282 281 280 279 278 276 275 274 273 270 265 260 254 250 247 242 235 232 233 237 241 244 243 234 233 236 231 235 245 248 252 257 260 259 259 261 262 263
248 249 250 251 252 253 253 254 254 255 256 256 257 257 258 258 257 258 258 259 260 262 263 264 265 265 266 266 267 267 268 269 269 269 270 270 270 271 271 270 269 268 268 267 265 263 266 270 274 279 281 279 277 278 279 281 282 282 283 283 282 282 281 282 281 280 278 276 274 270 264 257 252 249 245 240 237 235 234 234 235 235 231 230 234 237 241 246 251 255 257 259 259 258 259 260 261
248 249 251 252 253 253 253 254 254 254 255 255 256 256 257 257 258 258 259 260 261 262 263 264 265 265 266 266 267 268 268 269 269 269 269 269 270 270 270 270 269 268 268 267 266 262 261 265 271 276 278 278 278 279 280 281 281 282 282 282 283 284 284 285 285 283 281 278 274 269 264 257 251 247 243 240 237 234 231 230 230 231 233 236 239 243 246 246 249 253 256 258 259 260 260 260 261
248 249 250 251 252 252 252 253 253 253 253 254 254 255 257 257 258 259 260 261 262 263 263 264 264 265 266 267 268 269 269 269 269 269 269 269 269 269 269 269 269 269 268 268 268 265 263 266 269 266 266 272 276 278 280 281 282 282 281 280 280 282 286 287 287 285 281 276 269 263 257 250 244 239 237 237 236 235 233 235 236 235 236 242 246 244 243 244 248 253 256 259 261 263 263 261 263
247 248 248 249 250 251 251 252 252 253 253 253 253 255 256 257 259 260 261 262 263 263 263 264 265 265 266 267 268 269 269 269 268 268 269 269 269 270 270 270 270 270 269 269 268 266 265 267 269 266 264 268 273 276 278 280 282 282 281 281 281 282 285 287 287 286 283 279 271 260 252 245 239 232 228 230 232 232 233 236 239 236 233 236 241 242 242 245 249 253 256 259 262 264 264 264 266
246 247 247 248 249 250 251 251 252 252 253 253 254 254 256 257 259 261 262 262 263 263 264 264 265 265 266 267 267 268 268 268 268 268 269 269 269 270 270 271 271 271 270 270 268 265 265 267 269 270 268 268 272 275 277 279 280 281 281 282 284 284 285 286 287 288 287 283 277 267 254 241 234 229 224 224 227 229 230 232 233 231 229 233 239 242 243 246 250 253 255 257 261 263 265 266 268
245 246 247 247 249 250 251 251 251 252 253 254 254 255 256 258 259 261 261 262 262 263 263 264 265 265 266 266 266 267 267 267 268 268 269 269 270 270 271 271 271 271 270 270 268 265 264 263 263 265 268 270 272 274 276 278 279 280 281 281 282 284 286 287 288 289 288 286 282 274 261 244 231 229 230 229 228 229 229 230 232 232 232 235 238 240 244 248 250 252 253 256 261 265 267 268 269
243 245 246 247 248 249 250 251 252 253 254 254 255 256 257 258 259 260 261 261 262 263 263 264 265 266 266 265 265 266 266 267 268 268 269 270 270 270 271 271 271 271 270 268 267 264 261 260 260 262 267 271 273 275 277 278 279 279 280 280 281 282 284 285 286 286 286 285 281 275 266 253 239 234 237 238 236 234 232 232 235 237 238 240 241 243 247 249 250 252 254 258 262 265 268 269 267
243 244 245 246 247 249 250 251 252 253 254 255 255 256 257 258 259 260 261 261 262 262 263 264 265 265 265 265 265 266 267 267 268 268 268 269 270 270 270 271 271 269 269 267 265 264 262 263 264 266 270 273 274 276 278 279 280 280 280 280 281 282 282 281 280 278 277 276 275 272 266 258 249 242 240 240 240 239 238 239 241 244 245 246 247 248 251 253 256 259 260 261 263 266 268 268 265
242 244 245 246 247 249 250 251 252 252 253 255 256 257 258 258 258 260 260 261 261 262 263 264 264 264 264 264 264 265 266 266 267 267 268 268 268 268 268 268 268 267 267 267 267 266 267 268 269 271 273 274 275 277 278 279 279 279 279 281 281 281 279 276 274 271 268 266 266 265 264 261 255 250 247 246 245 245 246 247 249 250 252 254 254 256 258 260 262 264 263 263 264 266 268 268 264
242 243 244 246 247 248 249 250 251 252 253 254 256 257 257 258 258 259 259 260 261 261 262 262 263 263 263 264 264 264 265 265 265 266 265 265 265 265 265 265 265 265 266 267 269 269 270 271 272 273 274 275 277 278 279 278 278 278 279 280 280 278 275 273 271 269 267 264 263 262 262 261 257 254 252 252 252 252 253 255 257 258 260 262 262 264 265 266 264 263 261 262 265 267 269 268 264
242 243 245 246 247 248 249 249 250 251 252 254 255 255 256 257 258 258 258 259 260 261 262 262 262 262 262 263 263 263 263 263 263 263 263 262 262 261 261 262 263 264 265 266 269 271 273 274 275 276 276 278 279 279 278 277 277 277 277 277 277 275 273 273 272 271 270 268 267 265 265 264 262 258 256 255 255 256 257 259 260 262 263 265 266 267 268 268 265 261 260 262 265 267 267 266 264
242 243 244 245 246 246 247 247 248 249 250 252 253 254 256 257 257 257 258 259 260 261 262 263 263 262 262 262 262 262 262 261 261 261 261 260 260 259 258 260 262 263 266 268 271 274 276 278 280 280 280 281 280 280 279 279 278 278 277 276 274 273 273 273 273 273 271 269 267 265 264 264 263 261 259 257 257 256 257 257 258 260 262 264 266 267 268 268 266 263 262 262 262 262 263 263 262
242 243 244 244 245 245 245 245 246 248 249 251 253 254 256 257 257 257 257 257 258 257 256 259 260 261 261 261 261 261 261 261 261 261 261 260 259 259 258 259 262 264 267 272 276 280 284 287 288 288 287 285 283 281 280 279 279 278 277 275 274 274 273 271 271 270 268 267 266 264 263 263 263 262 261 260 258 258 258 258 259 261 262 264 265 266 266 265 264 262 261 260 259 257 257 258 258
241 242 243 243 244 244 244 245 246 247 249 251 253 253 255 257 257 256 256 256 256 255 254 255 257 259 260 260 260 260 260 261 262 262 262 261 260 260 260 261 264 269 272 277 284 291 296 298 298 296 291 285 281 279 279 278 278 277 277 277 276 274 273 270 268 267 266 267 267 267 267 266 266 265 265 265 265 264 264 264 264 265 265 265 265 265 264 263 261 259 258 258 257 254 252 251 251
241 242 242 243 244 244 244 245 246 248 249 250 252 252 253 256 257 257 257 258 258 258 258 257 258 259 260 260 260 259 259 260 261 261 262 262 262 261 261 263 265 269 273 279 291 302 310 313 311 305 295 287 282 279 278 278 277 277 277 277 275 273 272 270 268 267 267 267 268 268 268 268 269 269 269 269 270 270 269 268 267 266 266 265 265 265 264 263 260 257 255 254 254 253 250 248 246
241 242 243 243 244 244 245 246 247 247 249 249 251 251 252 255 257 258 258 259 259 259 259 259 259 260 259 259 259 259 258 258 259 261 262 262 262 262 261 261 260 261 261 262 267 282 302 312 312 307 298 293 291 287 282 280 280 280 278 275 272 269 268 266 266 266 266 266 267 267 268 269 270 270 270 269 269 270 271 271 269 268 267 266 265 265 264 263 260 257 254 252 252 252 251 249 248
241 242 243 244 244 245 245 246 246 247 248 249 250 250 252 255 257 258 258 259 259 259 259 259 259 259 259 259 259 259 258 258 259 260 261 261 261 262 261 259 258 258 257 249 231 229 246 265 280 290 288 286 292 294 288 284 283 281 277 274 271 268 266 266 267 266 266 266 267 269 272 273 272 272 272 272 271 272 273 273 273 271 269 268 267 266 265 265 263 260 256 253 251 251 252 253 253
241 242 243 244 244 244 244 244 245 246 247 248 249 251 253 255 257 257 258 258 258 259 259 259 259 259 259 259 258 259 259 259 259 259 260 260 260 261 260 259 258 257 256 248 230 218 213 216 237 252 255 261 277 286 284 282 281 277 276 275 274 272 270 270 270 268 267 267 268 270 272 273 274 275 276 277 277 276 275 275 275 274 272 270 269 269 268 268 268 267 263 259 255 253 252 253 255
241 241 242 243 244 244 244 244 245 246 248 249 250 251 252 255 256 257 257 257 258 258 258 259 259 258 258 258 258 258 259 260 260 260 261 261 261 262 261 260 258 256 251 243 233 222 209 203 218 232 239 243 249 262 272 277 277 273 272 273 273 273 272 273 273 272 272 271 270 270 271 272 274 276 277 278 278 278 277 276 275 274 272 269 269 269 270 270 270 269 268 266 263 259 257 256 257
241 241 242 243 243 244 244 245 246 247 249 250 251 251 252 254 256 256 256 256 256 257 257 257 256 257 257 257 258 259 260 260 261 261 262 262 262 263 263 262 260 256 248 238 233 226 213 204 211 225 242 253 254 257 264 270 272 271 270 271 273 274 274 273 274 274 276 276 275 274 275 276 276 276 276 276 276 277 277 276 276 275 273 269 267 268 269 269 269 268 268 267 266 264 262 261 260
242 242 243 243 243 244 245 245 246 247 248 249 250 250 251 252 254 254 254 254 254 254 254 255 255 255 256 257 258 259 260 261 261 261 261 261 260 259 258 260 259 255 246 235 232 229 217 207 207 223 247 264 263 259 259 263 268 270 270 272 273 275 274 273 273 274 277 278 278 278 279 278 278 277 276 276 275 275 276 276 277 277 276 273 270 269 268 268 268 268 268 268 268 267 266 265 264
242 242 243 244 244 244 245 245 245 246 247 248 249 250 251 251 252 253 253 252 252 252 253 253 254 255 256 257 258 259 260 260 260 259 257 256 257 257 255 254 254 252 247 237 231 228 220 209 205 218 237 253 258 255 253 256 261 265 267 270 272 272 270 270 270 272 276 279 279 280 281 281 281 281 280 279 279 279 278 278 279 279 278 277 275 274 273 272 272 271 271 270 270 269 267 266 266
240 241 242 243 244 244 244 244 245 245 246 247 248 249 250 250 251 251 252 252 252 252 252 253 254 255 256 258 259 259 259 259 257 255 254 252 253 255 254 252 250 245 241 238 233 227 222 216 216 225 231 240 249 250 248 249 253 259 264 265 266 266 265 266 267 270 276 281 281 280 280 282 282 283 283 284 283 283 282 281 280 280 280 279 278 277 277 277 276 275 275 273 272 271 269 267 266
239 240 241 242 242 243 243 244 244 245 246 246 247 248 248 248 249 250 250 250 250 251 251 252 253 254 255 257 258 258 257 256 255 254 252 250 249 250 252 252 249 243 238 235 232 228 226 224 228 235 238 241 246 250 250 249 251 257 262 263 262 262 262 264 266 267 272 278 281 277 276 278 280 281 282 283 283 282 281 281 281 280 280 279 278 278 278 277 277 276 276 276 274 272 271 269 268
239 239 240 240 241 241 242 243 243 244 245 245 246 246 246 247 248 249 250 250 250 250 251 251 252 252 253 254 254 254 253 253 253 252 251 249 246 246 248 247 246 244 238 234 231 230 231 231 233 238 241 243 246 249 250 251 254 259 263 263 262 262 262 264 266 268 268 272 278 277 272 273 276 279 281 282 281 280 280 280 280 279 279 279 278 278 278 277 276 276 276 276 276 274 271 270 268